EFW61U LEAL-EGKK

Flight info

Callsign EFW61U
Flight time N/A
Altitude 36000
Route MITOS N608 COMPI Y90 USKAR DCT MOPAS DCT GIROM DCT GONUP DCT MANAK DCT EPAPU UM184 EKRAS UT507 REVTU UP88 VASUX
Aircraft A320/M-SDE3FGHIRWY/LB1

Departure

Time 2026-04-27 09:19
Airport Alicante-Elche Miguel Hernández Airport (LEAL)

Arrival

Time N/A
Airport London Gatwick Airport (EGKK)
Time Latitude Longitude Altitude Speed Heading
2026-04-27 09:04 38.28550 -0.55451 90 ft 0 kts 11°
2026-04-27 09:08 38.28527 -0.55456 93 ft 4 kts 11°
2026-04-27 09:08 38.28506 -0.55462 92 ft 4 kts
2026-04-27 09:08 38.28485 -0.55457 93 ft 4 kts 309°
2026-04-27 09:09 38.28474 -0.55429 93 ft 4 kts 286°
2026-04-27 09:09 38.28469 -0.55408 93 ft 0 kts 279°
2026-04-27 09:11 38.28470 -0.55414 93 ft 4 kts 279°
2026-04-27 09:12 38.28477 -0.55462 93 ft 9 kts 279°
2026-04-27 09:12 38.28488 -0.55545 95 ft 10 kts 278°
2026-04-27 09:12 38.28449 -0.55602 97 ft 10 kts 188°
2026-04-27 09:12 38.28385 -0.55623 99 ft 9 kts 220°
2026-04-27 09:13 38.28378 -0.55693 101 ft 8 kts 277°
2026-04-27 09:13 38.28388 -0.55768 102 ft 9 kts 280°
2026-04-27 09:13 38.28400 -0.55850 103 ft 10 kts 280°
2026-04-27 09:13 38.28412 -0.55934 106 ft 10 kts 280°
2026-04-27 09:14 38.28424 -0.56022 108 ft 10 kts 279°
2026-04-27 09:14 38.28437 -0.56120 108 ft 12 kts 280°
2026-04-27 09:14 38.28454 -0.56240 109 ft 15 kts 280°
2026-04-27 09:14 38.28471 -0.56367 112 ft 14 kts 280°
2026-04-27 09:15 38.28488 -0.56480 114 ft 12 kts 280°
2026-04-27 09:15 38.28503 -0.56588 118 ft 13 kts 280°
2026-04-27 09:15 38.28519 -0.56701 122 ft 13 kts 279°
2026-04-27 09:15 38.28533 -0.56808 127 ft 11 kts 279°
2026-04-27 09:16 38.28544 -0.56891 131 ft 9 kts 279°
2026-04-27 09:16 38.28554 -0.56961 135 ft 7 kts 279°
2026-04-27 09:16 38.28560 -0.57012 137 ft 5 kts 279°
2026-04-27 09:16 38.28568 -0.57065 139 ft 6 kts 279°
2026-04-27 09:17 38.28576 -0.57118 141 ft 9 kts 282°
2026-04-27 09:17 38.28597 -0.57252 147 ft 18 kts 279°
2026-04-27 09:17 38.28617 -0.57406 152 ft 17 kts 279°
2026-04-27 09:17 38.28575 -0.57504 156 ft 14 kts 191°
2026-04-27 09:18 38.28479 -0.57522 157 ft 14 kts 176°
2026-04-27 09:18 38.28446 -0.57466 156 ft 7 kts 98°
2026-04-27 09:18 38.28422 -0.57291 147 ft 52 kts 99°
2026-04-27 09:18 38.28317 -0.56527 116 ft 119 kts 100°
2026-04-27 09:19 38.28151 -0.55322 337 ft 143 kts 99°
2026-04-27 09:19 38.27965 -0.54046 858 ft 149 kts 100°
2026-04-27 09:19 38.27826 -0.53184 1268 ft 150 kts 102°
2026-04-27 09:19 38.27509 -0.51335 1838 ft 174 kts 101°
2026-04-27 09:20 38.27375 -0.50293 2064 ft 186 kts 91°
2026-04-27 09:20 38.27793 -0.48684 2430 ft 205 kts 56°
2026-04-27 09:20 38.28664 -0.47126 2789 ft 228 kts 56°
2026-04-27 09:20 38.29602 -0.45376 3302 ft 249 kts 56°
2026-04-27 09:21 38.30580 -0.43516 4152 ft 255 kts 57°
2026-04-27 09:21 38.31569 -0.41617 5063 ft 260 kts 57°
2026-04-27 09:21 38.32510 -0.39625 5961 ft 265 kts 67°
2026-04-27 09:21 38.33195 -0.37431 6859 ft 268 kts 69°
2026-04-27 09:22 38.33880 -0.35201 7703 ft 272 kts 69°
2026-04-27 09:22 38.34572 -0.32940 8551 ft 276 kts 69°
2026-04-27 09:22 38.35279 -0.30639 9399 ft 281 kts 69°
2026-04-27 09:22 38.35995 -0.28311 10231 ft 284 kts 69°
2026-04-27 09:23 38.36765 -0.25870 10623 ft 304 kts 68°
2026-04-27 09:23 38.37615 -0.23303 10967 ft 322 kts 68°
2026-04-27 09:23 38.38513 -0.20646 11603 ft 329 kts 67°
2026-04-27 09:23 38.39427 -0.17952 12303 ft 334 kts 68°
2026-04-27 09:24 38.40351 -0.15216 13022 ft 338 kts 68°
2026-04-27 09:24 38.41279 -0.12447 13734 ft 342 kts 68°
2026-04-27 09:24 38.42213 -0.09642 14368 ft 346 kts 68°
2026-04-27 09:24 38.43238 -0.06849 14987 ft 351 kts 59°
2026-04-27 09:25 38.44777 -0.04408 15582 ft 357 kts 44°
2026-04-27 09:25 38.46813 -0.02578 16179 ft 362 kts 27°
2026-04-27 09:25 38.49210 -0.01531 16781 ft 368 kts 11°
2026-04-27 09:25 38.51781 -0.01315 17386 ft 373 kts
2026-04-27 09:26 38.54383 -0.01305 18007 ft 376 kts
2026-04-27 09:26 38.57017 -0.01295 18617 ft 379 kts
2026-04-27 09:26 38.59667 -0.01280 19169 ft 383 kts
2026-04-27 09:26 38.62347 -0.01261 19747 ft 386 kts
2026-04-27 09:27 38.65040 -0.01242 20359 ft 388 kts
2026-04-27 09:27 38.67754 -0.01224 20956 ft 391 kts
2026-04-27 09:27 38.70485 -0.01206 21527 ft 394 kts
2026-04-27 09:27 38.73235 -0.01189 22118 ft 396 kts
2026-04-27 09:28 38.76002 -0.01172 22681 ft 399 kts
2026-04-27 09:28 38.78786 -0.01155 23246 ft 401 kts
2026-04-27 09:28 38.81583 -0.01139 23785 ft 404 kts
2026-04-27 09:28 38.84405 -0.01122 24237 ft 407 kts
2026-04-27 09:29 38.87241 -0.01101 24688 ft 409 kts
2026-04-27 09:29 38.90097 -0.01078 25139 ft 411 kts
2026-04-27 09:29 38.92964 -0.01057 25576 ft 414 kts
2026-04-27 09:29 38.95851 -0.01036 26020 ft 415 kts 360°
2026-04-27 09:30 38.98754 -0.01017 26442 ft 418 kts 360°
2026-04-27 09:30 39.01666 -0.00999 26857 ft 420 kts 360°
2026-04-27 09:30 39.04600 -0.00980 27266 ft 423 kts 359°
2026-04-27 09:30 39.07548 -0.00960 27674 ft 425 kts 359°
2026-04-27 09:31 39.10548 -0.00940 28071 ft 427 kts 359°
2026-04-27 09:31 39.13525 -0.00922 28475 ft 429 kts 359°
2026-04-27 09:31 39.16521 -0.00904 28855 ft 432 kts 359°
2026-04-27 09:31 39.19532 -0.00886 29240 ft 434 kts 359°
2026-04-27 09:32 39.22561 -0.00864 29620 ft 436 kts 359°
2026-04-27 09:32 39.25601 -0.00841 29998 ft 438 kts 359°
2026-04-27 09:32 39.28657 -0.00823 30348 ft 441 kts 359°
2026-04-27 09:32 39.31730 -0.00804 30669 ft 443 kts 359°
2026-04-27 09:33 39.34811 -0.00590 30988 ft 445 kts
2026-04-27 09:33 39.37853 0.00231 31330 ft 447 kts 15°
2026-04-27 09:33 39.40835 0.01348 31787 ft 445 kts 15°
2026-04-27 09:33 39.43803 0.02450 32265 ft 443 kts 14°
2026-04-27 09:34 39.46760 0.03538 32745 ft 441 kts 14°
2026-04-27 09:34 39.49711 0.04619 33239 ft 439 kts 14°
2026-04-27 09:34 39.52648 0.05695 33710 ft 438 kts 14°
2026-04-27 09:34 39.55572 0.06772 34192 ft 436 kts 14°
2026-04-27 09:35 39.58477 0.07848 34588 ft 434 kts 14°
2026-04-27 09:35 39.61383 0.08927 34931 ft 434 kts 14°
2026-04-27 09:35 39.64290 0.10012 35258 ft 434 kts 14°
2026-04-27 09:35 39.67189 0.11093 35571 ft 434 kts 14°
2026-04-27 09:36 39.70095 0.12173 35889 ft 434 kts 14°
2026-04-27 09:36 39.73001 0.13253 36115 ft 435 kts 14°
2026-04-27 09:36 39.75906 0.14334 36164 ft 434 kts 14°
2026-04-27 09:37 39.81711 0.16497 36166 ft 433 kts 14°
2026-04-27 09:37 39.87508 0.18659 36165 ft 433 kts 14°
2026-04-27 09:38 39.93342 0.20850 36166 ft 433 kts 14°
2026-04-27 09:38 39.99139 0.23022 36164 ft 433 kts 14°
2026-04-27 09:39 40.04933 0.25202 36173 ft 434 kts 14°
2026-04-27 09:39 40.10742 0.27385 36172 ft 434 kts 14°
2026-04-27 09:40 40.16545 0.29560 36175 ft 434 kts 14°
2026-04-27 09:40 40.22355 0.31745 36177 ft 434 kts 14°
2026-04-27 09:41 40.28160 0.33946 36180 ft 434 kts 14°
2026-04-27 09:41 40.33964 0.36140 36177 ft 435 kts 14°
2026-04-27 09:42 40.39782 0.38343 36182 ft 435 kts 15°
2026-04-27 09:42 40.45588 0.40566 36180 ft 435 kts 15°
2026-04-27 09:43 40.51396 0.42783 36181 ft 435 kts 15°
2026-04-27 09:43 40.57209 0.44998 36176 ft 435 kts 15°
2026-04-27 09:44 40.63010 0.47214 36173 ft 434 kts 15°
2026-04-27 09:44 40.68854 0.49458 36169 ft 434 kts 15°
2026-04-27 09:45 40.73675 0.51308 36171 ft 434 kts 15°
2026-04-27 09:45 40.80468 0.53915 36174 ft 435 kts 15°
2026-04-27 09:46 40.86277 0.56158 36175 ft 435 kts 15°
2026-04-27 09:46 40.92090 0.58412 36179 ft 435 kts 15°
2026-04-27 09:47 40.97895 0.60657 36180 ft 435 kts 15°
2026-04-27 09:47 41.03710 0.62904 36177 ft 435 kts 15°
2026-04-27 09:48 41.09519 0.65161 36169 ft 435 kts 15°
2026-04-27 09:48 41.15322 0.67423 36171 ft 435 kts 15°
2026-04-27 09:49 41.21126 0.69688 36168 ft 435 kts 15°
2026-04-27 09:49 41.26939 0.71944 36161 ft 436 kts 15°
2026-04-27 09:50 41.32754 0.74216 36169 ft 436 kts 15°
2026-04-27 09:50 41.38563 0.76494 36170 ft 435 kts 15°
2026-04-27 09:51 41.44373 0.78778 36176 ft 435 kts 15°
2026-04-27 09:51 41.50181 0.81061 36171 ft 435 kts 15°
2026-04-27 09:52 41.56024 0.83362 36175 ft 435 kts 15°
2026-04-27 09:52 41.60854 0.85266 36176 ft 435 kts 15°
2026-04-27 09:53 41.66666 0.87558 36164 ft 435 kts 15°
2026-04-27 09:53 41.72471 0.89861 36163 ft 435 kts 15°
2026-04-27 09:54 41.78283 0.92166 36179 ft 436 kts 15°
2026-04-27 09:54 41.84102 0.94474 36174 ft 436 kts 15°
2026-04-27 09:55 41.89925 0.96792 36169 ft 437 kts 15°
2026-04-27 09:55 41.98656 1.00288 36175 ft 436 kts 15°
2026-04-27 09:56 42.04480 1.02620 36175 ft 437 kts 15°
2026-04-27 09:56 42.10306 1.04955 36181 ft 438 kts 15°
2026-04-27 09:57 42.16319 1.06292 36178 ft 435 kts 358°
2026-04-27 09:57 42.22343 1.05717 36194 ft 435 kts 354°
2026-04-27 09:58 42.28378 1.05067 36197 ft 435 kts 354°
2026-04-27 09:58 42.31387 1.04749 36197 ft 434 kts 354°